Regional Weather Roundup
Issued by NWS

Home | Current Version | Previous Version | Graphics & Text | Print | Product List | Glossary On
Versions: 1 2 3 4 5 6 7 8 9 10 11 12 13 14 15 16 17 18 19 20 21 22 23 24 25 26 27 28 29 30 31 32 33 34 35 36 37 38 39 40 41 42 43 44 45 46 47 48 49 50
000
ASUS43 KFSD 180210
RWRSD

WEATHER ROUNDUP FOR SOUTH DAKOTA
NATIONAL WEATHER SERVICE SIOUX FALLS SD
900 PM CDT WED SEP 17 2014

NOTE: "FAIR" INDICATES FEW OR NO CLOUDS BELOW 12,000 FEET WITH NO
SIGNIFICANT WEATHER AND/OR OBSTRUCTIONS TO VISIBILITY.


SDZ001>005-009-010-012>017-180300-
NORTHWEST AND NORTH CENTRAL SOUTH DAKOTA

CITY           SKY/WX    TMP DP  RH WIND       PRES   REMARKS
BUFFALO          N/A     62  52  69 SE12      29.88R
FAITH            N/A     63  49  60 SE16      29.95R
MOBRIDGE       MOCLDY    60  49  66 E14       29.94R
$$

SDZ012>016-024>037-041>051-057-063-072>074-180300-
SOUTHWEST AND SOUTH CENTRAL SOUTH DAKOTA

CITY           SKY/WX    TMP DP  RH WIND       PRES   REMARKS
RAPID CTY ARPT CLEAR     68  52  56 E13       29.95R
PIERRE         CLOUDY    65  45  48 E9        29.96R
CUSTER         CLEAR     62  47  57 E9        30.07R
ELLSWORTH AFB  CLEAR     69  52  54 E14       29.96R
PHILIP         PTCLDY    65  53  65 E9        29.94R
PINE RIDGE     CLEAR     66  54  65 E8        29.93R
WINNER         LGT RAIN  68  57  68 E9        29.96R
$$

SDZ004>011-016>023-039-040-180300-
NORTHEAST SOUTH DAKOTA

CITY           SKY/WX    TMP DP  RH WIND       PRES   REMARKS
ABERDEEN       PTCLDY    54  50  86 NE6       29.99R
WATERTOWN      PTCLDY    59  51  75 NE3       29.99R
SISSETON         N/A     53  51  93 CALM      29.98R
$$

SDZ017-020-022-023-036>040-048>070-180300-
SOUTHEAST SOUTH DAKOTA

CITY           SKY/WX    TMP DP  RH WIND       PRES   REMARKS
SIOUX FALLS    PTCLDY    63  56  78 NE3       29.97R
HURON          MOCLDY    65  53  65 E7        29.96R
CHAMBERLAIN    MOCLDY    65  55  71 NE3       29.96R
MITCHELL       PTCLDY    62  54  74 E5        29.95R
YANKTON        CLEAR     64  55  72 N6        29.95R
$$

ABBREVIATIONS USED IN REMARKS
   TC - TEMPERATURE IN CELSIUS
  WCI - WIND CHILL INDEX
   HX - HEAT INDEX
  VSB - VISIBILITY




USA.gov is the U.S. government's official web portal to all federal, state and local government web resources and services.